Disclaimer

Please do not use the information listed here in-flight or in-navigation, as they are not provided to us by the airports but are provided by volunteers, so they might be outdated.

Search


Regions


Airport information page

No radio frequency information is available.

Airport informations:
Latitude: 37° 37' 10.00" N
Longitude: 061° 53' 48.00" E
Elevation: 728 feet - 222 meters
Operating hours: 24 hour operations
Operating agency: Civil government, landing fees and diplomatic clearance may be required
Timezone: UTC+5
Fuel: N/A

Runway information:
18R/36L - 7994 x 98 feet< - >2437 x 30 meters
18L/36R - 9107 x 147 feet< - >2776 x 45 meters

Recent METARs:
UTAM 171300Z 13008KT 1000 HZ FEW066 SCT100 OVC230 21/06 Q1001 NOSIG
UTAM 171400Z 12008KT 4700 HZ SCT066 SCT100 OVC230 19/09 Q1001 NOSIG
UTAM 171400Z 12008KT 4700 HZ SCT066 SCT100 OVC230 19/09 Q1001 NOSIG

Airport on the map: